Regional Weather Roundup
Issued by NWS

Home | Current Version | Previous Version | Graphics & Text | Print | Product List | Glossary On
Versions: 1 2 3 4 5 6 7 8 9 10 11 12 13 14 15 16 17 18 19 20 21 22 23 24 25 26 27
330
ASUS45 KSLC 220610
RWRUT

UTAH REGIONAL WEATHER ROUNDUP
NATIONAL WEATHER SERVICE SALT LAKE CITY UT
1200 AM MDT FRI MAY 22 2015

UTZ001>011-023>025-220700-

NORTHERN UTAH

CITY           SKY/WX    TMP DP  RH WIND       PRES   REMARKS
BRIGHAM CITY   CLOUDY    55  44  65 CALM      29.90F
HILL AFB       MOCLDY    55  42  61 VRB1      29.91S
LOGAN          CLEAR     50  46  86 N3        29.92F
OGDEN          MOCLDY    56  44  64 NW9       29.89F
PROVO AIRPORT  CLOUDY    52  43  71 S3        29.91F
SALT LAKE CITY MOCLDY    57  46  66 W8        29.88S
VERNAL         MOCLDY    53  41  63 NE7       29.92R
WENDOVER       CLOUDY    54  46  76 CALM      29.91S
HEBER CITY     MOCLDY    41  39  93 CALM      29.98S
WEST JORDAN    CLOUDY    55  45  67 CALM      29.90F

$$

UTZ012>022-026-027-220700-

SOUTHERN/CENTRAL UTAH

CITY           SKY/WX    TMP DP  RH WIND       PRES   REMARKS
BLANDING       CLOUDY    56  40  54 E9        30.03R
BRYCE CANYON   PTCLDY    36  30  79 W7        30.02S WCI  30
CEDAR CITY     CLOUDY    52  27  38 E8        29.92F
DELTA          CLOUDY    55  41  58 NE6       29.91S
HANKSVILLE     MOCLDY    63  28  27 W3        29.87S
MILFORD        CLOUDY    56  32  40 VRB3      29.91S
MOAB/CYNLANDS  CLEAR     61  39  44 CALM      29.85S
PRICE          MOCLDY    56  33  42 N12       29.92S
ST GEORGE      MOCLDY    63  25  23 SE5       29.83S
KANAB          PTCLDY    45  32  61 NE6       29.95R

$$

REGIONAL REPORTS     COLORADO/ARIZONA

CITY           SKY/WX    TMP DP  RH WIND       PRES   REMARKS
CRAIG, CO      CLOUDY    52  40  63 E14       29.97F
GRAND JUNCTION CLOUDY    54  44  69 E21G26    29.92S
RIFLE          CLOUDY    54  44  69 SE3       29.95R
MONTROSE       CLOUDY    54  41  61 SE6       29.99R
CORTEZ         MOCLDY    50  41  71 NE15      30.01R
PAGE, AZ       NOT AVBL
GRAND CANYON   CLEAR     34  32  92 NE3       30.01S
KINGMAN        CLEAR     59  28  30 S13       29.87R
FLAGSTAFF      CLEAR     40  28  62 CALM      30.03S

$$

REGIONAL REPORTS    NEVADA/IDAHO/WYOMING

CITY           SKY/WX    TMP DP  RH WIND       PRES   REMARKS
LAS VEGAS, NV  PTCLDY    70  35  27 SW8       29.73S
ELY            PTCLDY    39  34  82 SW5       29.96R
ELKO           LGT RAIN  50  43  77 S8        29.93F
POCATELLO, ID  PTCLDY    51  49  92 SE3       29.94F
BURLEY         CLOUDY    56  44  64 SE7       29.90S
EVANSTON, WY   CLOUDY    40  37  89 SE5       30.01F
ROCK SPRINGS   CLOUDY    45  41  86 E9        30.03S
KEMMERER       CLOUDY    41  37  87 NE6       30.04F

$$



USA.gov is the U.S. government's official web portal to all federal, state and local government web resources and services.